Location: Unspecified
(51.0950°N, 12.9690°E)
Time: 18:39:55
(UTC+00:00)

BUGSAT 1 - Pass Details

Date: 15 May 2025
Orbit: 512 x 554 km, 98.1° (Epoch: 16 June)

Event Time Altitude Azimuth Distance (km) Brightness Sun altitude
Exits shadow 20:19:31 13° 169° (S) 1,575 ? -11.1°
Maximum altitude 20:22:52 78° 255° (WSW) 537 ? -11.4°
Drops below altitude 10° 20:26:39 10° 343° (NNW) 1,756 ? -11.8°
Sets 20:28:45 0° 345° (NNW) 2,645 ? -12.0°
